This is the latest recevied weather packets stored in our database for station/object HP1COO-13. If no packets are shown the sender has not sent any weather packets the latest 10 day(s).
| Time | Temp. | Humidity | Pressure | Rain* | Wind** | Luminosity | Snow |
|---|---|---|---|---|---|---|---|
| 1787499335 | 26.11° C | 94% | 1010.6 hPa | 0 mm | - | - | - |
| 1787498702 | 27.22° C | 91% | 1010.6 hPa | 0 mm | - | - | - |
| 1787498070 | 27.78° C | 92% | 1010.4 hPa | 0 mm | - | - | - |
| 1787497436 | 27.78° C | 92% | 1010.4 hPa | 0 mm | - | - | - |
| 1787496803 | 27.78° C | 93% | 1010.1 hPa | 0 mm | - | - | - |
| 1787496170 | 27.22° C | 93% | 1010.2 hPa | 0 mm | - | - | - |
| 1787495537 | 27.78° C | 93% | 1010.1 hPa | 0 mm | - | - | - |
| 1787494905 | 27.22° C | 94% | 1010.1 hPa | 0 mm | - | - | - |
| 1787494271 | 27.22° C | 94% | 1010.2 hPa | 0 mm | - | - | - |
| 1787493638 | 27.22° C | 93% | 1010.3 hPa | 0 mm | - | - | - |
| 1787493005 | 27.22° C | 93% | 1010.4 hPa | 0 mm | - | - | - |
| 1787492372 | 27.22° C | 94% | 1010.3 hPa | 0 mm | - | - | - |
| 1787491739 | 27.22° C | 93% | 1009.7 hPa | 0 mm | - | - | - |
| 1787491107 | 27.22° C | 95% | 1009.8 hPa | 0 mm | - | - | - |
| 1787490473 | 26.67° C | 96% | 1009.5 hPa | 0 mm | - | - | - |
| 1787489841 | 26.67° C | 96% | 1009.5 hPa | 0 mm | - | - | - |
| 1787489207 | 26.11° C | 97% | 1009.2 hPa | 0 mm | - | - | - |
| 1787488574 | 26.11° C | 97% | 1009.1 hPa | 0 mm | - | - | - |
| 1787487941 | 26.11° C | 97% | 1009 hPa | 0 mm | - | - | - |
| 1787487308 | 25.56° C | 97% | 1008.9 hPa | 0 mm | - | - | - |
| 1787486675 | 25.56° C | 97% | 1009 hPa | 0 mm | - | - | - |
| 1787486042 | 25.56° C | 98% | 1008.9 hPa | 0 mm | - | - | - |
| 1787485409 | 25.56° C | 98% | 1008.9 hPa | 0 mm | - | - | - |
| 1787484776 | 25.56° C | 99% | 1008.4 hPa | 0 mm | - | - | - |
| 1787484143 | 25.56° C | 99% | 1008.3 hPa | 0 mm | - | - | - |
* Rain latest hour (hover to see other rain measurements)
** Current wind speed in m/s (hover to see current wind gust speed)